sat.trackr.live / text

‹ back to catalog

STARLINK-37835

NORAD 69500 · 2026-131Y

PAYLOAD ACTIVE UNKNOWN

§ Identity

Operator
Country
US
Launch date
2026-06-11
Launch site
AFWTR
Launch vehicle
Mass (kg)
RCS (m²)

Purposes: comms

External: N2YO · Heavens-Above · Gunter

§ Orbital elements

Epoch: 2026-09-20T01:21:12.647232Z

Period
93.91 min
Inclination
97.2836°
Eccentricity
0.0001656
Mean motion
15.33455315 rev/d
Perigee alt
464.4 km
Apogee alt
466.6 km
Semi-major
6,843.6 km
B*
3.2772e-4
RAAN
283.9905°
Arg perigee
92.8048°
Mean anomaly
267.3384°
Rev number
1,557

§ Raw data

STARLINK-378351 69500U 26131Y   26263.05639638  .00010523  00000+0  32772-3 0  99962 69500  97.2836 283.9905 0001656  92.8048 267.3384 15.33455315 15578

JSON: /api/v1/satellites/69500 · /tle

For live sub-satellite position, see the globe view (requires WebGL).

§ Visibility from observer

Set your observer location to see the next 7 days of passes ≥ 10°. The values pass through the URL so the page stays shareable.

No JS? Fill the form by hand. The geolocation button needs JavaScript.